Time,TemperatureF,DewpointF,PressureIn,WindDirection,WindDirectionDegrees,WindSpeedMPH,WindSpeedGustMPH,Humidity,HourlyPrecipIn,Conditions,Clouds,dailyrainin,SolarRadiationWatts/m^2,SoftwareType,DateUTC
2013-04-12 00:00:00,35.4,28.6,30.16,WSW,244,0.0,0.0,76,0.00,,,0.00,0,Wunderground v.1.15,2013-04-12 07:00:00,
2013-04-12 00:10:00,34.9,28.7,30.15,WSW,244,0.0,0.0,78,0.00,,,0.00,0,Wunderground v.1.15,2013-04-12 07:10:00,
2013-04-12 00:15:00,34.7,28.5,30.15,WSW,244,0.0,0.0,78,0.00,,,0.00,0,Wunderground v.1.15,2013-04-12 07:15:00,
2013-04-12 00:20:00,34.6,28.8,30.15,WSW,244,0.0,0.0,79,0.00,,,0.00,0,Wunderground v.1.15,2013-04-12 07:20:00,
2013-04-12 00:25:00,34.6,28.8,30.15,WSW,244,0.0,0.0,79,0.00,,,0.00,0,Wunderground v.1.15,2013-04-12 07:25:00,
2013-04-12 00:35:00,34.5,28.3,30.14,WSW,244,0.0,0.0,78,0.00,,,0.00,0,Wunderground v.1.15,2013-04-12 07:35:00,
2013-04-12 00:40:00,34.3,28.5,30.15,WSW,244,0.0,0.0,79,0.00,,,0.00,0,Wunderground v.1.15,2013-04-12 07:40:00,
2013-04-12 00:45:00,34.1,28.3,30.15,WSW,244,0.0,0.0,79,0.00,,,0.00,0,Wunderground v.1.15,2013-04-12 07:45:00,
2013-04-12 00:50:00,33.9,28.1,30.15,WSW,244,0.0,0.0,79,0.00,,,0.00,0,Wunderground v.1.15,2013-04-12 07:50:00,
2013-04-12 00:55:00,33.7,28.5,30.15,WSW,244,0.0,0.0,81,0.00,,,0.00,0,Wunderground v.1.15,2013-04-12 07:55:00,
2013-04-12 01:00:00,33.6,28.4,30.14,WSW,244,0.0,0.0,81,0.00,,,0.00,0,Wunderground v.1.15,2013-04-12 08:00:00,
2013-04-12 01:10:00,33.2,27.7,30.14,WSW,244,0.0,0.0,80,0.00,,,0.00,0,Wunderground v.1.15,2013-04-12 08:10:00,
2013-04-12 01:15:00,33.1,28.2,30.14,WSW,244,0.0,0.0,82,0.00,,,0.00,0,Wunderground v.1.15,2013-04-12 08:15:00,
2013-04-12 01:20:00,32.8,27.3,30.14,WSW,244,0.0,0.0,80,0.00,,,0.00,0,Wunderground v.1.15,2013-04-12 08:20:00,
2013-04-12 01:25:00,32.3,26.8,30.14,WSW,244,0.0,0.0,80,0.00,,,0.00,0,Wunderground v.1.15,2013-04-12 08:25:00,
2013-04-12 01:30:00,32.1,27.5,30.14,WSW,244,0.0,0.0,83,0.00,,,0.00,0,Wunderground v.1.15,2013-04-12 08:30:00,
2013-04-12 01:40:00,31.6,27.0,30.13,WSW,244,0.0,0.0,83,0.00,,,0.00,0,Wunderground v.1.15,2013-04-12 08:40:00,
2013-04-12 01:45:00,31.5,27.5,30.13,WSW,244,0.0,0.0,85,0.00,,,0.00,0,Wunderground v.1.15,2013-04-12 08:45:00,
2013-04-12 01:50:00,31.4,26.8,30.13,WSW,244,0.0,0.0,83,0.00,,,0.00,0,Wunderground v.1.15,2013-04-12 08:50:00,
2013-04-12 01:54:00,31.2,26.9,30.13,WSW,244,0.0,0.0,84,0.00,,,0.00,0,Wunderground v.1.15,2013-04-12 08:54:00,
2013-04-12 02:00:00,31.1,27.1,30.13,WSW,244,0.0,0.0,85,0.00,,,0.00,0,Wunderground v.1.15,2013-04-12 09:00:00,
2013-04-12 02:09:00,30.4,26.1,30.13,WSW,244,0.0,0.0,84,0.00,,,0.00,0,Wunderground v.1.15,2013-04-12 09:09:00,
2013-04-12 02:14:00,30.2,26.2,30.13,WSW,244,0.0,0.0,85,0.00,,,0.00,0,Wunderground v.1.15,2013-04-12 09:14:00,
2013-04-12 02:19:00,29.9,26.2,30.13,WSW,244,0.0,0.0,86,0.00,,,0.00,0,Wunderground v.1.15,2013-04-12 09:19:00,
2013-04-12 02:24:00,29.7,26.0,30.13,WSW,244,0.0,0.0,86,0.00,,,0.00,0,Wunderground v.1.15,2013-04-12 09:24:00,
2013-04-12 02:29:00,29.8,25.8,30.13,WSW,244,0.0,0.0,85,0.00,,,0.00,0,Wunderground v.1.15,2013-04-12 09:29:00,
2013-04-12 02:34:00,29.6,25.6,30.13,WSW,244,0.0,0.0,85,0.00,,,0.00,0,Wunderground v.1.15,2013-04-12 09:34:00,
2013-04-12 02:44:00,29.3,25.9,30.12,WSW,244,0.0,0.0,87,0.00,,,0.00,0,Wunderground v.1.15,2013-04-12 09:44:00,
2013-04-12 02:49:00,29.3,25.9,30.11,WSW,244,0.0,0.0,87,0.00,,,0.00,0,Wunderground v.1.15,2013-04-12 09:49:00,
2013-04-12 02:54:00,29.2,25.5,30.11,WSW,244,0.0,0.0,86,0.00,,,0.00,0,Wunderground v.1.15,2013-04-12 09:54:00,
2013-04-12 03:00:00,29.1,25.4,30.11,WSW,244,0.0,0.0,86,0.00,,,0.00,0,Wunderground v.1.15,2013-04-12 10:00:00,
2013-04-12 03:09:00,29.0,25.3,30.11,WSW,244,0.0,0.0,86,0.00,,,0.00,0,Wunderground v.1.15,2013-04-12 10:09:00,
2013-04-12 03:19:00,28.4,23.9,30.12,WSW,244,0.0,0.0,83,0.00,,,0.00,0,Wunderground v.1.15,2013-04-12 10:19:00,
2013-04-12 03:24:00,27.9,23.4,30.12,WSW,244,0.0,0.0,83,0.00,,,0.00,0,Wunderground v.1.15,2013-04-12 10:24:00,
2013-04-12 03:29:00,27.4,23.2,30.11,WSW,244,0.0,0.0,84,0.00,,,0.00,0,Wunderground v.1.15,2013-04-12 10:29:00,
2013-04-12 03:34:00,27.1,22.9,30.11,WSW,244,0.0,0.0,84,0.00,,,0.00,0,Wunderground v.1.15,2013-04-12 10:34:00,
2013-04-12 03:39:00,26.8,22.9,30.12,WSW,244,0.0,0.0,85,0.00,,,0.00,0,Wunderground v.1.15,2013-04-12 10:39:00,
2013-04-12 03:45:00,26.7,23.1,30.11,WSW,244,0.0,0.0,86,0.00,,,0.00,0,Wunderground v.1.15,2013-04-12 10:45:00,
2013-04-12 03:50:00,26.9,23.5,30.11,WSW,244,0.0,0.0,87,0.00,,,0.00,0,Wunderground v.1.15,2013-04-12 10:50:00,
2013-04-12 03:55:00,27.2,24.1,30.11,WSW,244,0.0,0.0,88,0.00,,,0.00,0,Wunderground v.1.15,2013-04-12 10:55:00,
2013-04-12 04:00:00,27.5,24.4,30.11,WSW,244,0.0,0.0,88,0.00,,,0.00,0,Wunderground v.1.15,2013-04-12 11:00:00,
2013-04-12 04:09:00,28.4,24.7,30.11,WSW,244,0.0,0.0,86,0.00,,,0.00,0,Wunderground v.1.15,2013-04-12 11:09:00,
2013-04-12 04:14:00,28.6,24.7,30.11,WSW,243,0.0,0.0,85,0.00,,,0.00,0,Wunderground v.1.15,2013-04-12 11:14:00,
2013-04-12 04:20:00,28.6,24.4,30.11,WSW,243,0.0,0.0,84,0.00,,,0.00,0,Wunderground v.1.15,2013-04-12 11:20:00,
2013-04-12 04:25:00,28.4,24.2,30.11,WSW,244,0.0,0.0,84,0.00,,,0.00,0,Wunderground v.1.15,2013-04-12 11:25:00,
2013-04-12 04:30:00,28.2,24.3,30.11,WSW,244,0.0,0.0,85,0.00,,,0.00,0,Wunderground v.1.15,2013-04-12 11:30:00,
2013-04-12 04:35:00,28.1,24.2,30.11,WSW,244,0.0,0.0,85,0.00,,,0.00,0,Wunderground v.1.15,2013-04-12 11:35:00,
2013-04-12 04:40:00,28.0,24.1,30.11,WSW,244,0.0,0.0,85,0.00,,,0.00,0,Wunderground v.1.15,2013-04-12 11:40:00,
2013-04-12 04:45:00,27.9,24.0,30.11,WSW,244,0.0,0.0,85,0.00,,,0.00,0,Wunderground v.1.15,2013-04-12 11:45:00,
2013-04-12 04:55:00,27.8,23.9,30.11,West,263,0.0,0.0,85,0.00,,,0.00,0,Wunderground v.1.15,2013-04-12 11:55:00,
2013-04-12 05:00:00,28.0,24.1,30.11,West,263,0.0,0.0,85,0.00,,,0.00,0,Wunderground v.1.15,2013-04-12 12:00:00,
2013-04-12 05:09:00,28.1,23.9,30.11,West,263,0.0,0.0,84,0.00,,,0.00,0,Wunderground v.1.15,2013-04-12 12:09:00,
2013-04-12 05:14:00,28.0,23.8,30.11,West,263,0.0,0.0,84,0.00,,,0.00,0,Wunderground v.1.15,2013-04-12 12:14:00,
2013-04-12 05:19:00,27.9,23.7,30.11,West,280,0.0,0.0,84,0.00,,,0.00,0,Wunderground v.1.15,2013-04-12 12:19:00,
2013-04-12 05:25:00,27.7,23.5,30.11,WNW,282,0.0,0.0,84,0.00,,,0.00,0,Wunderground v.1.15,2013-04-12 12:25:00,
2013-04-12 05:30:00,27.5,23.3,30.11,WNW,282,0.0,0.0,84,0.00,,,0.00,0,Wunderground v.1.15,2013-04-12 12:30:00,
2013-04-12 05:35:00,27.3,23.1,30.11,WNW,282,0.0,0.0,84,0.00,,,0.00,0,Wunderground v.1.15,2013-04-12 12:35:00,
2013-04-12 05:40:00,27.0,22.8,30.11,WNW,282,0.0,0.0,84,0.00,,,0.00,0,Wunderground v.1.15,2013-04-12 12:40:00,
2013-04-12 05:45:00,26.9,23.0,30.10,WNW,283,0.0,0.0,85,0.00,,,0.00,0,Wunderground v.1.15,2013-04-12 12:45:00,
2013-04-12 05:50:00,27.0,23.4,30.10,WNW,283,0.0,0.0,86,0.00,,,0.00,0,Wunderground v.1.15,2013-04-12 12:50:00,
2013-04-12 06:00:00,27.1,23.5,30.10,WNW,284,0.0,0.0,86,0.00,,,0.00,0,Wunderground v.1.15,2013-04-12 13:00:00,
2013-04-12 06:10:00,27.2,23.6,30.10,WNW,287,0.0,0.0,86,0.00,,,0.00,0,Wunderground v.1.15,2013-04-12 13:10:00,
2013-04-12 06:15:00,27.2,23.6,30.10,WNW,289,0.0,0.0,86,0.00,,,0.00,0,Wunderground v.1.15,2013-04-12 13:15:00,
2013-04-12 06:20:00,27.2,23.6,30.10,WNW,295,0.0,0.0,86,0.00,,,0.00,0,Wunderground v.1.15,2013-04-12 13:20:00,
2013-04-12 06:30:00,27.2,23.6,30.09,WNW,295,0.0,0.0,86,0.00,,,0.00,9,Wunderground v.1.15,2013-04-12 13:30:00,
2013-04-12 06:35:00,27.2,23.6,30.09,WNW,296,0.0,0.0,86,0.00,,,0.00,12,Wunderground v.1.15,2013-04-12 13:35:00,
2013-04-12 06:40:00,27.2,23.3,30.09,WNW,296,0.0,0.0,85,0.00,,,0.00,16,Wunderground v.1.15,2013-04-12 13:40:00,
2013-04-12 06:45:00,27.1,23.2,30.09,WNW,296,0.0,0.0,85,0.00,,,0.00,19,Wunderground v.1.15,2013-04-12 13:45:00,
2013-04-12 06:50:00,27.1,23.2,30.09,WNW,298,0.0,2.0,85,0.00,,,0.00,23,Wunderground v.1.15,2013-04-12 13:50:00,
2013-04-12 06:55:00,27.1,23.5,30.09,WNW,299,0.0,2.0,86,0.00,,,0.00,30,Wunderground v.1.15,2013-04-12 13:55:00,
2013-04-12 07:00:00,27.1,23.5,30.09,WNW,299,0.0,0.0,86,0.00,,,0.00,33,Wunderground v.1.15,2013-04-12 14:00:00,
2013-04-12 07:10:00,27.2,23.6,30.09,WNW,300,0.0,0.0,86,0.00,,,0.00,56,Wunderground v.1.15,2013-04-12 14:10:00,
2013-04-12 07:15:00,27.3,23.7,30.09,WNW,300,0.0,0.0,86,0.00,,,0.00,69,Wunderground v.1.15,2013-04-12 14:15:00,
2013-04-12 07:20:00,27.5,23.9,30.09,WNW,300,0.0,0.0,86,0.00,,,0.00,90,Wunderground v.1.15,2013-04-12 14:20:00,
2013-04-12 07:25:00,27.9,24.5,30.09,WNW,300,0.0,0.0,87,0.00,,,0.00,125,Wunderground v.1.15,2013-04-12 14:25:00,
2013-04-12 07:35:00,29.1,25.7,30.09,WNW,297,1.0,3.0,87,0.00,,,0.00,77,Wunderground v.1.15,2013-04-12 14:35:00,
2013-04-12 07:40:00,29.6,25.9,30.09,WNW,296,1.0,1.0,86,0.00,,,0.00,105,Wunderground v.1.15,2013-04-12 14:40:00,
2013-04-12 07:45:00,29.9,25.9,30.09,WNW,297,1.0,1.0,85,0.00,,,0.00,90,Wunderground v.1.15,2013-04-12 14:45:00,
2013-04-12 07:50:00,29.9,25.7,30.09,WNW,298,0.0,0.0,84,0.00,,,0.00,125,Wunderground v.1.15,2013-04-12 14:50:00,
2013-04-12 07:55:00,30.0,25.5,30.08,NW,313,1.0,3.0,83,0.00,,,0.00,232,Wunderground v.1.15,2013-04-12 14:55:00,
2013-04-12 08:00:00,30.1,25.3,30.08,NW,323,4.0,4.0,82,0.00,,,0.00,213,Wunderground v.1.15,2013-04-12 15:00:00,
2013-04-12 08:10:00,30.5,25.7,30.08,NW,321,5.0,6.0,82,0.00,,,0.00,295,Wunderground v.1.15,2013-04-12 15:10:00,
2013-04-12 08:15:00,30.9,26.1,30.08,NW,325,5.0,6.0,82,0.00,,,0.00,308,Wunderground v.1.15,2013-04-12 15:15:00,
2013-04-12 08:24:00,32.1,26.9,30.08,WNW,295,3.0,7.0,81,0.00,,,0.00,345,Wunderground v.1.15,2013-04-12 15:24:00,
2013-04-12 08:29:00,32.7,27.2,30.08,NW,321,2.0,2.0,80,0.00,,,0.00,345,Wunderground v.1.15,2013-04-12 15:29:00,
2013-04-12 08:34:00,33.4,27.9,30.07,WNW,297,2.0,7.0,80,0.00,,,0.00,339,Wunderground v.1.15,2013-04-12 15:34:00,
2013-04-12 08:44:00,34.9,28.4,30.07,NW,311,4.0,4.0,77,0.00,,,0.00,388,Wunderground v.1.15,2013-04-12 15:44:00,
2013-04-12 08:49:00,35.7,28.6,30.06,NW,313,2.0,2.0,75,0.00,,,0.00,374,Wunderground v.1.15,2013-04-12 15:49:00,
2013-04-12 08:54:00,36.6,29.4,30.06,NW,316,1.0,5.0,75,0.00,,,0.00,399,Wunderground v.1.15,2013-04-12 15:54:00,
2013-04-12 09:00:00,37.4,29.5,30.06,NW,309,2.0,2.0,73,0.00,,,0.00,424,Wunderground v.1.15,2013-04-12 16:00:00,
2013-04-12 09:10:00,39.3,31.0,30.05,NW,313,1.0,5.0,72,0.00,,,0.00,457,Wunderground v.1.15,2013-04-12 16:10:00,
2013-04-12 09:15:00,40.6,31.6,30.04,WNW,298,2.0,5.0,70,0.00,,,0.00,501,Wunderground v.1.15,2013-04-12 16:15:00,
2013-04-12 09:20:00,41.9,31.7,30.04,West,260,2.0,2.0,67,0.00,,,0.00,490,Wunderground v.1.15,2013-04-12 16:20:00,
2013-04-12 09:25:00,42.9,31.2,30.04,WNW,302,3.0,8.0,63,0.00,,,0.00,489,Wunderground v.1.15,2013-04-12 16:25:00,
2013-04-12 09:30:00,43.5,30.9,30.04,West,277,4.0,4.0,61,0.00,,,0.00,512,Wunderground v.1.15,2013-04-12 16:30:00,
2013-04-12 09:35:00,44.1,31.1,30.03,SSW,206,3.0,4.0,60,0.00,,,0.00,497,Wunderground v.1.15,2013-04-12 16:35:00,
2013-04-12 09:45:00,45.1,32.0,30.03,WSW,246,2.0,2.0,60,0.00,,,0.00,566,Wunderground v.1.15,2013-04-12 16:45:00,
2013-04-12 09:50:00,45.8,31.9,30.03,SSW,211,1.0,1.0,58,0.00,,,0.00,598,Wunderground v.1.15,2013-04-12 16:50:00,
2013-04-12 09:55:00,46.3,31.9,30.03,WSW,241,1.0,2.0,57,0.00,,,0.00,575,Wunderground v.1.15,2013-04-12 16:55:00,
2013-04-12 10:00:00,46.8,31.9,30.03,West,269,1.0,1.0,56,0.00,,,0.00,577,Wunderground v.1.15,2013-04-12 17:00:00,
2013-04-12 10:05:00,47.3,31.5,30.02,WSW,247,2.0,2.0,54,0.00,,,0.00,580,Wunderground v.1.15,2013-04-12 17:05:00,
2013-04-12 10:14:00,48.3,31.9,30.02,WNW,290,1.0,9.0,53,0.00,,,0.00,635,Wunderground v.1.15,2013-04-12 17:14:00,
2013-04-12 10:19:00,48.4,31.6,30.01,NNW,328,4.0,4.0,52,0.00,,,0.00,615,Wunderground v.1.15,2013-04-12 17:19:00,
2013-04-12 10:24:00,48.3,31.0,30.01,West,275,6.0,6.0,51,0.00,,,0.00,638,Wunderground v.1.15,2013-04-12 17:24:00,
2013-04-12 10:29:00,48.6,31.3,30.01,NW,304,6.0,13.0,51,0.00,,,0.00,582,Wunderground v.1.15,2013-04-12 17:29:00,
2013-04-12 10:34:00,49.0,31.6,30.00,WNW,293,5.0,13.0,51,0.00,,,0.00,629,Wunderground v.1.15,2013-04-12 17:34:00,
2013-04-12 10:39:00,49.6,32.2,30.00,WSW,252,3.0,3.0,51,0.00,,,0.00,679,Wunderground v.1.15,2013-04-12 17:39:00,
2013-04-12 10:44:00,50.3,32.4,29.99,WNW,298,2.0,3.0,50,0.00,,,0.00,696,Wunderground v.1.15,2013-04-12 17:44:00,
2013-04-12 10:50:00,50.9,32.4,29.99,SW,223,2.0,2.0,49,0.00,,,0.00,703,Wunderground v.1.15,2013-04-12 17:50:00,
2013-04-12 10:55:00,51.5,32.4,29.98,NW,305,2.0,3.0,48,0.00,,,0.00,675,Wunderground v.1.15,2013-04-12 17:55:00,
2013-04-12 11:05:00,52.6,34.0,29.98,WSW,257,2.0,2.0,49,0.00,,,0.00,724,Wunderground v.1.15,2013-04-12 18:05:00,
2013-04-12 11:14:00,53.6,31.6,29.97,NW,315,3.0,7.0,43,0.00,,,0.00,701,Wunderground v.1.15,2013-04-12 18:14:00,
2013-04-12 11:19:00,53.3,31.4,29.97,WNW,297,6.0,6.0,43,0.00,,,0.00,705,Wunderground v.1.15,2013-04-12 18:19:00,
2013-04-12 11:24:00,53.6,31.6,29.97,WSW,254,4.0,6.0,43,0.00,,,0.00,749,Wunderground v.1.15,2013-04-12 18:24:00,
2013-04-12 12:29:00,59.4,31.0,29.92,NW,304,0.0,0.0,34,0.00,,,0.00,758,Wunderground v.1.15,2013-04-12 19:29:00,
2013-04-12 12:35:00,59.6,29.7,29.92,NW,315,1.0,1.0,32,0.00,,,0.00,659,Wunderground v.1.15,2013-04-12 19:35:00,
2013-04-12 12:39:00,60.3,31.0,29.91,SW,232,1.0,1.0,33,0.00,,,0.00,594,Wunderground v.1.15,2013-04-12 19:39:00,
2013-04-12 12:44:00,61.1,31.8,29.91,SW,232,0.0,1.0,33,0.00,,,0.00,506,Wunderground v.1.15,2013-04-12 19:44:00,
2013-04-12 12:49:00,61.6,30.6,29.91,West,270,0.0,0.0,31,0.00,,,0.00,485,Wunderground v.1.15,2013-04-12 19:49:00,
2013-04-12 12:54:00,61.8,29.2,29.91,WSW,252,0.0,0.0,29,0.00,,,0.00,506,Wunderground v.1.15,2013-04-12 19:54:00,
2013-04-12 13:00:00,61.4,28.8,29.91,NNW,337,2.0,2.0,29,0.00,,,0.00,462,Wunderground v.1.15,2013-04-12 20:00:00,
2013-04-12 13:09:00,61.1,26.8,29.90,North,5,1.0,4.0,27,0.00,,,0.00,394,Wunderground v.1.15,2013-04-12 20:09:00,
2013-04-12 13:14:00,60.9,25.7,29.90,NW,318,2.0,4.0,26,0.00,,,0.00,397,Wunderground v.1.15,2013-04-12 20:14:00,
2013-04-12 13:19:00,61.0,25.8,29.89,NW,317,1.0,1.0,26,0.00,,,0.00,420,Wunderground v.1.15,2013-04-12 20:19:00,
2013-04-12 13:24:00,61.1,26.8,29.89,NW,314,1.0,5.0,27,0.00,,,0.00,401,Wunderground v.1.15,2013-04-12 20:24:00,
2013-04-12 13:29:00,61.0,25.8,29.89,NW,323,3.0,4.0,26,0.00,,,0.00,403,Wunderground v.1.15,2013-04-12 20:29:00,
2013-04-12 13:34:00,60.9,25.7,29.89,NW,317,3.0,4.0,26,0.00,,,0.00,385,Wunderground v.1.15,2013-04-12 20:34:00,
2013-04-12 13:40:00,61.1,25.9,29.89,NNW,328,1.0,4.0,26,0.00,,,0.00,462,Wunderground v.1.15,2013-04-12 20:40:00,
2013-04-12 13:45:00,61.1,26.8,29.89,NW,324,1.0,4.0,27,0.00,,,0.00,452,Wunderground v.1.15,2013-04-12 20:45:00,
2013-04-12 13:50:00,61.5,26.3,29.89,NNE,12,1.0,4.0,26,0.00,,,0.00,448,Wunderground v.1.15,2013-04-12 20:50:00,
2013-04-12 13:55:00,62.1,24.8,29.89,NE,55,1.0,4.0,24,0.00,,,0.00,524,Wunderground v.1.15,2013-04-12 20:55:00,
2013-04-12 14:00:00,62.1,25.8,29.89,NNE,14,2.0,5.0,25,0.00,,,0.00,483,Wunderground v.1.15,2013-04-12 21:00:00,
2013-04-12 14:10:00,62.6,14.2,29.89,North,5,9.0,12.0,15,0.00,,,0.00,411,Wunderground v.1.15,2013-04-12 21:10:00,
2013-04-12 14:15:00,62.4,15.6,29.89,NNE,30,11.0,12.0,16,0.00,,,0.00,418,Wunderground v.1.15,2013-04-12 21:15:00,
2013-04-12 14:20:00,62.3,16.9,29.89,NE,48,10.0,10.0,17,0.00,,,0.00,376,Wunderground v.1.15,2013-04-12 21:20:00,
2013-04-12 14:25:00,61.9,16.5,29.89,ENE,59,9.0,10.0,17,0.00,,,0.00,325,Wunderground v.1.15,2013-04-12 21:25:00,
2013-04-12 14:30:00,61.7,20.2,29.88,NE,44,7.0,7.0,20,0.00,,,0.00,299,Wunderground v.1.15,2013-04-12 21:30:00,
2013-04-12 14:35:00,61.4,22.2,29.88,NNE,32,4.0,7.0,22,0.00,,,0.00,292,Wunderground v.1.15,2013-04-12 21:35:00,
2013-04-12 14:45:00,60.6,22.6,29.88,NE,36,5.0,5.0,23,0.00,,,0.00,243,Wunderground v.1.15,2013-04-12 21:45:00,
2013-04-12 14:50:00,60.3,22.3,29.88,NE,34,5.0,5.0,23,0.00,,,0.00,255,Wunderground v.1.15,2013-04-12 21:50:00,
2013-04-12 14:55:00,60.2,23.2,29.88,North,355,4.0,5.0,24,0.00,,,0.00,246,Wunderground v.1.15,2013-04-12 21:55:00,
2013-04-12 15:00:00,60.1,23.1,29.87,NNE,12,4.0,4.0,24,0.00,,,0.00,255,Wunderground v.1.15,2013-04-12 22:00:00,
2013-04-12 15:10:00,60.1,22.1,29.86,NNE,26,9.0,14.0,23,0.00,,,0.00,227,Wunderground v.1.15,2013-04-12 22:10:00,
2013-04-12 15:20:00,59.5,18.3,29.87,North,5,14.0,14.0,20,0.00,,,0.00,179,Wunderground v.1.15,2013-04-12 22:20:00,
2013-04-12 15:25:00,59.3,18.2,29.86,North,360,15.0,22.0,20,0.00,,,0.00,156,Wunderground v.1.15,2013-04-12 22:25:00,
2013-04-12 15:30:00,59.0,19.1,29.86,NNE,28,15.0,15.0,21,0.00,,,0.00,128,Wunderground v.1.15,2013-04-12 22:30:00,
2013-04-12 15:35:00,58.8,21.0,29.86,North,10,16.0,16.0,23,0.00,,,0.00,113,Wunderground v.1.15,2013-04-12 22:35:00,
2013-04-12 15:40:00,58.5,19.7,29.86,NNE,13,16.0,16.0,22,0.00,,,0.00,95,Wunderground v.1.15,2013-04-12 22:40:00,
2013-04-12 15:50:00,58.1,18.3,29.84,North,355,16.0,16.0,21,0.00,,,0.00,81,Wunderground v.1.15,2013-04-12 22:50:00,
2013-04-12 15:55:00,58.0,18.2,29.84,North,5,17.0,17.0,21,0.00,,,0.00,88,Wunderground v.1.15,2013-04-12 22:55:00,
2013-04-12 16:00:00,57.9,20.3,29.84,NNW,346,13.0,13.0,23,0.00,,,0.00,86,Wunderground v.1.15,2013-04-12 23:00:00,
2013-04-12 16:10:00,57.7,22.1,29.84,North,360,14.0,14.0,25,0.00,,,0.00,79,Wunderground v.1.15,2013-04-12 23:10:00,
2013-04-12 16:15:00,57.6,20.0,29.85,NNE,18,16.0,16.0,23,0.00,,,0.00,88,Wunderground v.1.15,2013-04-12 23:15:00,
2013-04-12 16:25:00,57.4,20.9,29.84,NNE,16,15.0,18.0,24,0.00,,,0.00,127,Wunderground v.1.15,2013-04-12 23:25:00,
2013-04-12 16:30:00,57.4,21.8,29.84,NNE,29,17.0,20.0,25,0.00,,,0.00,144,Wunderground v.1.15,2013-04-12 23:30:00,
2013-04-12 16:35:00,57.3,20.8,29.84,North,5,19.0,20.0,24,0.00,,,0.00,144,Wunderground v.1.15,2013-04-12 23:35:00,
2013-04-12 16:40:00,57.2,21.6,29.84,NNE,19,18.0,18.0,25,0.00,,,0.00,160,Wunderground v.1.15,2013-04-12 23:40:00,
2013-04-12 16:45:00,57.1,21.6,29.84,North,9,17.0,18.0,25,0.00,,,0.00,155,Wunderground v.1.15,2013-04-12 23:45:00,
2013-04-12 16:54:00,57.1,21.6,29.84,North,5,20.0,21.0,25,0.00,,,0.00,193,Wunderground v.1.15,2013-04-12 23:54:00,
2013-04-12 17:00:00,57.1,23.4,29.84,North,9,19.0,19.0,27,0.00,,,0.00,204,Wunderground v.1.15,2013-04-13 00:00:00,
2013-04-12 17:09:00,57.0,23.3,29.84,NW,316,19.0,20.0,27,0.00,,,0.00,241,Wunderground v.1.15,2013-04-13 00:09:00,
2013-04-12 17:14:00,57.3,23.6,29.84,North,355,19.0,20.0,27,0.00,,,0.00,394,Wunderground v.1.15,2013-04-13 00:14:00,
2013-04-12 17:19:00,57.6,23.8,29.84,NW,323,21.0,23.0,27,0.00,,,0.00,434,Wunderground v.1.15,2013-04-13 00:19:00,
2013-04-12 17:29:00,57.1,25.1,29.84,NNW,346,20.0,20.0,29,0.00,,,0.00,288,Wunderground v.1.15,2013-04-13 00:29:00,
2013-04-12 17:34:00,56.7,25.6,29.83,North,355,21.0,21.0,30,0.00,,,0.00,311,Wunderground v.1.15,2013-04-13 00:34:00,
2013-04-12 17:39:00,56.3,25.2,29.83,NNE,12,22.0,22.0,30,0.00,,,0.00,213,Wunderground v.1.15,2013-04-13 00:39:00,
2013-04-12 17:44:00,55.8,26.3,29.83,North,360,22.0,22.0,32,0.00,,,0.00,186,Wunderground v.1.15,2013-04-13 00:44:00,
2013-04-12 17:49:00,55.4,26.7,29.83,NNE,14,21.0,21.0,33,0.00,,,0.00,265,Wunderground v.1.15,2013-04-13 00:49:00,
2013-04-12 17:55:00,55.4,26.0,29.82,NNE,17,20.0,23.0,32,0.00,,,0.00,204,Wunderground v.1.15,2013-04-13 00:55:00,
2013-04-12 18:00:00,55.3,27.4,29.81,North,11,20.0,20.0,34,0.00,,,0.00,176,Wunderground v.1.15,2013-04-13 01:00:00,
2013-04-12 18:10:00,55.0,25.6,29.81,NNE,32,18.0,20.0,32,0.00,,,0.00,91,Wunderground v.1.15,2013-04-13 01:10:00,
2013-04-12 18:15:00,54.7,25.4,29.81,NNE,24,19.0,20.0,32,0.00,,,0.00,76,Wunderground v.1.15,2013-04-13 01:15:00,
2013-04-12 18:20:00,54.3,26.5,29.82,NNE,25,18.0,18.0,34,0.00,,,0.00,62,Wunderground v.1.15,2013-04-13 01:20:00,
2013-04-12 18:30:00,53.8,28.1,29.81,NNE,12,16.0,16.0,37,0.00,,,0.00,32,Wunderground v.1.15,2013-04-13 01:30:00,
2013-04-12 18:35:00,53.4,28.4,29.82,North,360,15.0,18.0,38,0.00,,,0.00,26,Wunderground v.1.15,2013-04-13 01:35:00,
2013-04-12 18:40:00,53.1,29.4,29.81,North,360,13.0,16.0,40,0.00,,,0.00,23,Wunderground v.1.15,2013-04-13 01:40:00,
2013-04-12 18:45:00,52.9,29.8,29.82,NNE,29,13.0,16.0,41,0.00,,,0.00,26,Wunderground v.1.15,2013-04-13 01:45:00,
2013-04-12 18:50:00,52.5,31.2,29.81,NNW,348,15.0,17.0,44,0.00,,,0.00,32,Wunderground v.1.15,2013-04-13 01:50:00,
2013-04-12 18:55:00,52.2,31.5,29.81,North,5,16.0,18.0,45,0.00,,,0.00,28,Wunderground v.1.15,2013-04-13 01:55:00,
2013-04-12 19:00:00,51.9,32.3,29.81,NNW,331,15.0,15.0,47,0.00,,,0.00,26,Wunderground v.1.15,2013-04-13 02:00:00,
2013-04-12 19:10:00,51.4,33.4,29.81,North,349,17.0,21.0,50,0.00,,,0.00,21,Wunderground v.1.15,2013-04-13 02:10:00,
2013-04-12 19:15:00,51.2,34.2,29.81,NNW,346,16.0,27.0,52,0.00,,,0.00,14,Wunderground v.1.15,2013-04-13 02:15:00,
2013-04-12 19:20:00,51.0,34.0,29.80,North,5,15.0,20.0,52,0.00,,,0.00,12,Wunderground v.1.15,2013-04-13 02:20:00,
2013-04-12 19:25:00,50.8,34.7,29.80,North,360,15.0,26.0,54,0.00,,,0.00,9,Wunderground v.1.15,2013-04-13 02:25:00,
2013-04-12 19:35:00,50.5,34.9,29.80,North,360,17.0,20.0,55,0.00,,,0.00,5,Wunderground v.1.15,2013-04-13 02:35:00,
2013-04-12 19:40:00,50.3,35.2,29.80,North,360,16.0,21.0,56,0.00,,,0.00,0,Wunderground v.1.15,2013-04-13 02:40:00,
2013-04-12 19:45:00,50.1,35.4,29.80,North,5,16.0,21.0,57,0.00,,,0.00,0,Wunderground v.1.15,2013-04-13 02:45:00,
2013-04-12 19:50:00,49.8,35.2,29.81,North,5,16.0,16.0,57,0.00,,,0.00,0,Wunderground v.1.15,2013-04-13 02:50:00,
2013-04-12 19:55:00,49.7,35.5,29.81,North,350,13.0,16.0,58,0.00,,,0.00,0,Wunderground v.1.15,2013-04-13 02:55:00,
2013-04-12 20:00:00,49.5,35.3,29.81,North,11,9.0,9.0,58,0.00,,,0.00,0,Wunderground v.1.15,2013-04-13 03:00:00,
2013-04-12 20:10:00,49.3,36.0,29.80,NNE,25,6.0,12.0,60,0.00,,,0.00,0,Wunderground v.1.15,2013-04-13 03:10:00,
2013-04-12 20:15:00,49.1,36.2,29.80,North,355,13.0,13.0,61,0.00,,,0.00,0,Wunderground v.1.15,2013-04-13 03:15:00,
2013-04-12 20:20:00,49.0,36.1,29.81,North,360,14.0,14.0,61,0.00,,,0.00,0,Wunderground v.1.15,2013-04-13 03:20:00,
2013-04-12 20:25:00,48.8,35.9,29.80,North,349,12.0,14.0,61,0.00,,,0.00,0,Wunderground v.1.15,2013-04-13 03:25:00,
2013-04-12 20:30:00,48.7,36.3,29.80,NNW,333,12.0,12.0,62,0.00,,,0.00,0,Wunderground v.1.15,2013-04-13 03:30:00,
2013-04-12 20:40:00,48.5,36.1,29.79,NNW,331,11.0,13.0,62,0.00,,,0.00,0,Wunderground v.1.15,2013-04-13 03:40:00,
2013-04-12 20:45:00,48.5,36.5,29.80,NNW,339,13.0,14.0,63,0.00,,,0.00,0,Wunderground v.1.15,2013-04-13 03:45:00,
2013-04-12 20:50:00,48.5,36.5,29.79,NNW,344,15.0,15.0,63,0.00,,,0.00,0,Wunderground v.1.15,2013-04-13 03:50:00,
2013-04-12 20:55:00,48.4,36.4,29.78,NNW,333,16.0,16.0,63,0.00,,,0.00,0,Wunderground v.1.15,2013-04-13 03:55:00,
2013-04-12 21:00:00,48.3,36.3,29.79,NNW,348,15.0,15.0,63,0.00,,,0.00,0,Wunderground v.1.15,2013-04-13 04:00:00,
2013-04-12 21:05:00,48.3,36.3,29.78,NNW,343,15.0,15.0,63,0.00,,,0.00,0,Wunderground v.1.15,2013-04-13 04:05:00,
2013-04-12 21:10:00,48.2,36.2,29.79,NNW,339,15.0,15.0,63,0.00,,,0.00,0,Wunderground v.1.15,2013-04-13 04:10:00,
2013-04-12 21:15:00,48.3,36.3,29.79,NNW,346,14.0,18.0,63,0.00,,,0.00,0,Wunderground v.1.15,2013-04-13 04:15:00,
2013-04-12 21:20:00,48.3,36.3,29.79,NNW,341,14.0,15.0,63,0.00,,,0.00,0,Wunderground v.1.15,2013-04-13 04:20:00,
2013-04-12 21:25:00,48.3,36.3,29.80,North,5,13.0,15.0,63,0.00,,,0.00,0,Wunderground v.1.15,2013-04-13 04:25:00,
2013-04-12 21:30:00,48.3,36.3,29.80,North,5,13.0,22.0,63,0.00,,,0.00,0,Wunderground v.1.15,2013-04-13 04:30:00,
2013-04-12 21:35:00,48.4,36.4,29.80,NNE,15,15.0,22.0,63,0.00,,,0.00,0,Wunderground v.1.15,2013-04-13 04:35:00,
2013-04-12 21:45:00,48.2,37.4,29.79,North,355,13.0,15.0,66,0.00,,,0.00,0,Wunderground v.1.15,2013-04-13 04:45:00,
2013-04-12 21:50:00,48.2,36.2,29.79,North,350,14.0,14.0,63,0.00,,,0.00,0,Wunderground v.1.15,2013-04-13 04:50:00,
2013-04-12 21:55:00,48.1,36.1,29.78,North,351,15.0,15.0,63,0.00,,,0.00,0,Wunderground v.1.15,2013-04-13 04:55:00,
2013-04-12 22:00:00,47.9,36.3,29.78,North,350,16.0,19.0,64,0.00,,,0.00,0,Wunderground v.1.15,2013-04-13 05:00:00,
2013-04-12 22:10:00,47.6,36.0,29.78,NNW,339,19.0,25.0,64,0.00,,,0.00,0,Wunderground v.1.15,2013-04-13 05:10:00,
2013-04-12 22:20:00,47.3,35.7,29.78,North,350,17.0,17.0,64,0.00,,,0.00,0,Wunderground v.1.15,2013-04-13 05:20:00,
2013-04-12 22:25:00,47.1,35.9,29.78,NNW,337,13.0,17.0,65,0.00,,,0.00,0,Wunderground v.1.15,2013-04-13 05:25:00,
2013-04-12 22:30:00,46.9,35.7,29.77,North,360,12.0,12.0,65,0.00,,,0.00,0,Wunderground v.1.15,2013-04-13 05:30:00,
2013-04-12 22:35:00,46.7,35.6,29.78,North,355,12.0,12.0,65,0.00,,,0.00,0,Wunderground v.1.15,2013-04-13 05:35:00,
2013-04-12 22:40:00,46.7,35.6,29.79,NNW,348,13.0,14.0,65,0.00,,,0.00,0,Wunderground v.1.15,2013-04-13 05:40:00,
2013-04-12 22:49:00,46.6,35.1,29.78,North,360,16.0,16.0,64,0.00,,,0.00,0,Wunderground v.1.15,2013-04-13 05:49:00,
2013-04-12 22:54:00,46.4,34.9,29.78,North,5,13.0,16.0,64,0.00,,,0.00,0,Wunderground v.1.15,2013-04-13 05:54:00,
2013-04-12 23:00:00,46.3,34.8,29.78,North,355,13.0,13.0,64,0.00,,,0.00,0,Wunderground v.1.15,2013-04-13 06:00:00,
2013-04-12 23:10:00,46.1,34.6,29.77,North,355,12.0,12.0,64,0.00,,,0.00,0,Wunderground v.1.15,2013-04-13 06:10:00,
2013-04-12 23:14:00,46.0,34.5,29.77,North,5,11.0,16.0,64,0.00,,,0.00,0,Wunderground v.1.15,2013-04-13 06:14:00,
2013-04-12 23:24:00,45.8,34.3,29.78,North,5,11.0,11.0,64,0.00,,,0.00,0,Wunderground v.1.15,2013-04-13 06:24:00,
2013-04-12 23:29:00,45.7,34.2,29.78,NNE,24,11.0,11.0,64,0.00,,,0.00,0,Wunderground v.1.15,2013-04-13 06:29:00,
2013-04-12 23:34:00,45.6,34.5,29.79,North,355,9.0,11.0,65,0.00,,,0.00,0,Wunderground v.1.15,2013-04-13 06:34:00,
2013-04-12 23:39:00,45.5,34.4,29.79,NNE,19,8.0,8.0,65,0.00,,,0.00,0,Wunderground v.1.15,2013-04-13 06:39:00,
2013-04-12 23:44:00,45.5,34.0,29.79,North,5,11.0,19.0,64,0.00,,,0.00,0,Wunderground v.1.15,2013-04-13 06:44:00,
2013-04-12 23:50:00,46.0,34.1,29.78,NNE,30,13.0,13.0,63,0.00,,,0.00,0,Wunderground v.1.15,2013-04-13 06:50:00,
2013-04-12 23:55:00,45.9,34.0,29.79,North,5,11.0,13.0,63,0.00,,,0.00,0,Wunderground v.1.15,2013-04-13 06:55:00,